GW6636 Weather Reports


time (UTC)temp
F
wind
direction
speed
knots
gust
knots
rain 1hr
in
rain 24hr
in
rain mn
in
humidity
%
barometer
mb
20260510103726 64 244 0.9 1.7 0.00 0.00 0.00 99 1015.0
20260510103226 64 0 0.0 0.0 0.00 0.00 0.00 99 1014.9
20260510102726 64 72 0.0 0.9 0.00 0.00 0.00 99 1014.9
20260510102226 64 260 0.9 1.7 0.00 0.00 0.00 99 1014.9
20260510101726 64 252 1.7 1.7 0.00 0.00 0.00 99 1014.8
20260510101226 64 0 0.0 0.0 0.00 0.00 0.00 99 1014.8
20260510100726 63 0 0.0 0.0 0.00 0.00 0.00 99 1014.8
20260510100226 63 286 0.0 0.0 0.00 0.00 0.00 99 1014.9
20260510095726 63 0 0.0 0.0 0.00 0.00 0.00 99 1014.9
20260510095226 63 0 0.0 0.0 0.00 0.00 0.00 99 1014.8
20260510094727 63 86 0.0 0.9 0.00 0.00 0.00 99 1014.7
20260510094226 63 0 0.0 0.0 0.00 0.00 0.00 99 1014.6
20260510093249 62 53 0.0 0.0 0.00 0.00 0.00 99 1014.5
20260510092726 62 69 0.0 0.9 0.00 0.00 0.00 99 1014.4
20260510092226 62 0 0.0 0.0 0.00 0.00 0.00 99 1014.3
20260510091726 62 57 0.0 0.0 0.00 0.00 0.00 99 1014.2
20260510091226 62 15 0.0 0.9 0.00 0.00 0.00 99 1014.1
20260510090726 62 93 0.0 0.9 0.00 0.00 0.00 99 1014.0
20260510090226 62 0 0.0 0.0 0.00 0.00 0.00 99 1014.0
20260510085726 62 267 0.0 0.9 0.00 0.00 0.00 99 1014.0
20260510085226 62 0 0.0 0.0 0.00 0.00 0.00 99 1014.0
20260510084726 62 0 0.0 0.0 0.00 0.00 0.00 99 1013.9
20260510084226 62 0 0.0 0.0 0.00 0.00 0.00 99 1013.9
20260510083726 62 66 0.0 0.9 0.00 0.00 0.00 99 1013.9
20260510083226 62 48 0.0 0.9 0.00 0.00 0.00 99 1013.8
20260510082726 62 96 0.0 0.0 0.00 0.00 0.00 99 1013.8
20260510082226 62 97 0.0 0.9 0.00 0.00 0.00 99 1013.8
20260510081726 62 0 0.0 0.0 0.00 0.00 0.00 99 1013.9
20260510081226 62 0 0.0 0.0 0.00 0.00 0.00 99 1013.8
20260510080726 62 0 0.0 0.0 0.00 0.00 0.00 99 1013.7
20260510080227 62 0 0.0 0.0 0.00 0.00 0.00 99 1013.6
20260510075726 62 0 0.0 0.0 0.00 0.00 0.00 99 1013.6
20260510075226 62 179 0.0 0.0 0.00 0.00 0.00 99 1013.6
20260510074726 62 48 0.0 0.9 0.00 0.00 0.00 99 1013.6
20260510074232 62 0 0.0 0.0 0.00 0.00 0.00 99 1013.6
20260510073726 63 93 0.0 0.9 0.00 0.00 0.00 99 1013.6
20260510073226 63 71 0.0 0.9 0.00 0.00 0.00 99 1013.6
20260510072726 63 70 0.0 0.9 0.00 0.00 0.00 99 1013.6
20260510072226 63 69 0.0 0.0 0.00 0.00 0.00 99 1013.6
20260510071726 63 0 0.0 0.0 0.00 0.00 0.00 99 1013.6
20260510071226 63 59 0.9 0.9 0.00 0.00 0.00 99 1013.6
20260510070726 63 84 0.0 0.0 0.00 0.00 0.00 99 1013.6
20260510070227 63 0 0.0 0.0 0.00 0.00 0.00 99 1013.5
20260510065726 63 162 0.0 0.9 0.00 0.00 0.00 99 1013.5
20260510065226 63 153 0.0 0.0 0.00 0.00 0.00 99 1013.5
20260510064727 63 0 0.0 0.0 0.00 0.00 0.00 99 1013.6
20260510064226 63 66 0.0 0.9 0.00 0.00 0.00 99 1013.6
20260510063726 63 70 0.0 0.0 0.00 0.00 0.00 99 1013.6
20260510063226 63 0 0.0 0.0 0.00 0.00 0.00 99 1013.6
20260510062726 63 69 0.0 0.9 0.00 0.00 0.00 99 1013.5
20260510062226 64 0 0.0 0.0 0.00 0.00 0.00 99 1013.4
20260510061726 64 71 0.0 0.0 0.00 0.00 0.00 99 1013.4
20260510061226 64 0 0.0 0.0 0.00 0.00 0.00 99 1013.4
20260510060726 64 95 0.0 0.0 0.00 0.00 0.00 99 1013.5
20260510060227 64 62 0.0 0.0 0.00 0.00 0.00 99 1013.6
20260510055726 64 0 0.0 0.0 0.00 0.00 0.00 99 1013.6
20260510055227 64 175 0.0 0.9 0.00 0.00 0.00 99 1013.5
20260510054726 64 0 0.0 0.0 0.00 0.00 0.00 99 1013.6
20260510054226 64 0 0.0 0.0 0.00 0.00 0.00 99 1013.6
20260510053726 64 0 0.0 0.0 0.00 0.00 0.00 100 1013.6
20260510053227 65 0 0.0 0.0 0.00 0.00 0.00 100 1013.6
20260510052726 65 0 0.0 0.0 0.00 0.00 0.00 100 1013.6
20260510052226 65 0 0.0 0.0 0.00 0.00 0.00 100 1013.6
20260510051726 65 143 0.0 0.0 0.00 0.00 0.00 99 1013.5
20260510051227 65 0 0.0 0.0 0.00 0.00 0.00 99 1013.5
20260510050726 65 0 0.0 0.0 0.00 0.00 0.00 99 1013.5
20260510050226 65 0 0.0 0.0 0.00 0.00 0.00 99 1013.6
20260510045727 65 57 0.0 0.9 0.00 0.00 0.71 99 1013.6
20260510045226 66 265 0.0 0.0 0.00 0.00 0.71 99 1013.6
20260510044727 66 0 0.0 0.0 0.00 0.00 0.71 98 1013.7
20260510044226 66 351 0.0 0.0 0.00 0.00 0.71 98 1013.8
20260510043726 66 77 0.0 0.9 0.00 0.00 0.71 98 1013.8
20260510043227 66 165 0.0 0.0 0.00 0.00 0.71 97 1013.9
20260510042726 67 0 0.0 0.0 0.00 0.00 0.71 97 1013.8
20260510042226 67 0 0.0 0.0 0.00 0.00 0.71 97 1013.8
20260510041726 67 0 0.0 0.0 0.00 0.00 0.71 97 1013.9
20260510041227 67 0 0.0 0.0 0.00 0.00 0.71 96 1013.9
20260510040726 67 275 0.9 0.9 0.00 0.00 0.71 96 1013.9
20260510040228 68 189 0.0 0.0 0.00 0.00 0.71 96 1013.9
20260510035727 68 248 0.9 1.7 0.00 0.00 0.71 96 1014.0
20260510035228 68 0 0.0 0.0 0.00 0.00 0.71 95 1014.0
20260510034726 68 138 0.0 0.9 0.00 0.00 0.71 95 1014.0
20260510034226 68 251 0.9 1.7 0.00 0.00 0.71 95 1014.1
20260510033726 68 42 0.0 0.0 0.00 0.00 0.71 96 1014.2
20260510033226 68 263 0.0 0.0 0.00 0.00 0.71 95 1014.2
20260510032726 68 254 0.0 0.0 0.00 0.00 0.71 95 1014.3
20260510032226 68 238 0.0 0.9 0.00 0.00 0.71 95 1014.2
20260510031726 69 195 0.9 0.9 0.00 0.00 0.71 95 1014.1
20260510031226 69 0 0.0 0.0 0.00 0.00 0.71 95 1013.9
20260510030726 69 286 0.9 0.9 0.00 0.00 0.71 95 1013.9
20260510030226 69 257 0.0 0.0 0.00 0.00 0.71 94 1013.9
20260510025726 69 0 0.0 0.0 0.00 0.00 0.71 94 1014.0
20260510025226 69 259 0.9 1.7 0.00 0.00 0.71 94 1014.2
20260510024726 69 243 0.9 0.9 0.00 0.00 0.71 94 1014.2
20260510024226 69 236 0.9 1.7 0.00 0.00 0.71 94 1014.1
20260510023726 69 238 0.0 0.9 0.00 0.00 0.71 95 1014.0
20260510023226 69 49 0.0 0.9 0.00 0.00 0.71 95 1013.9
20260510022727 69 88 0.0 0.0 0.00 0.00 0.71 94 1013.9
20260510022226 69 0 0.0 0.0 0.00 0.00 0.71 94 1013.8
20260510021726 69 251 0.9 0.9 0.00 0.00 0.71 94 1013.7
20260510021227 69 249 0.9 1.7 0.00 0.00 0.71 94 1013.6
20260510020727 70 263 0.9 1.7 0.00 0.00 0.71 94 1013.5
20260510020226 70 75 0.0 0.0 0.00 0.00 0.71 94 1013.5
20260510015726 70 245 0.0 1.7 0.00 0.00 0.71 94 1013.4
20260510015227 70 254 0.0 0.0 0.00 0.00 0.71 94 1013.4
20260510014726 70 237 0.0 0.9 0.00 0.00 0.71 93 1013.3
20260510014226 70 251 1.7 1.7 0.00 0.00 0.71 93 1013.4
20260510013726 70 232 0.9 1.7 0.00 0.00 0.71 94 1013.3
20260510013226 71 232 0.9 0.9 0.00 0.00 0.71 94 1013.1
20260510012727 71 92 0.0 0.0 0.00 0.00 0.71 94 1013.1
20260510012226 71 256 1.7 1.7 0.00 0.00 0.71 93 1013.0
20260510011728 71 254 0.0 0.9 0.00 0.00 0.71 93 1012.8
20260510011226 71 270 0.9 0.9 0.00 0.00 0.71 93 1012.6
20260510010726 71 280 0.9 0.9 0.00 0.00 0.71 93 1012.5
20260510010227 71 241 0.9 1.7 0.00 0.00 0.71 93 1012.5
20260510005726 72 259 0.0 0.9 0.00 0.00 0.71 93 1012.3
20260510005226 72 272 0.9 0.9 0.00 0.00 0.71 92 1012.3
20260510004726 72 0 0.0 0.0 0.00 0.00 0.71 92 1012.2
20260510004226 72 249 0.0 0.9 0.00 0.00 0.71 92 1012.2
20260510003726 72 266 0.0 0.0 0.00 0.00 0.71 92 1012.1
20260510003226 73 249 0.0 0.0 0.00 0.00 0.71 92 1012.0
20260510002726 73 266 0.9 1.7 0.00 0.00 0.71 92 1012.0
20260510002226 73 247 0.9 1.7 0.00 0.00 0.71 91 1012.0
20260510001726 73 263 0.9 0.9 0.00 0.00 0.71 91 1011.9
20260510001226 73 256 0.9 1.7 0.00 0.00 0.71 91 1011.8
20260510000726 73 254 1.7 1.7 0.00 0.00 0.71 91 1011.9
20260510000226 73 253 0.9 1.7 0.00 0.00 0.71 91 1011.9
20260509235726 74 0 0.0 0.0 0.00 0.00 0.71 91 1011.9
20260509235229 74 279 0.0 0.9 0.00 0.00 0.71 91 1011.8
20260509234726 74 266 0.0 0.9 0.00 0.00 0.71 88 1011.6
20260509234227 74 0 0.0 0.0 0.00 0.00 0.71 89 1011.5
20260509233726 74 342 0.0 0.0 0.00 0.00 0.71 87 1011.5
20260509233226 74 0 0.0 0.0 0.00 0.00 0.71 88 1011.6
20260509232726 74 0 0.0 0.0 0.00 0.00 0.71 87 1011.5
20260509232226 74 0 0.0 0.0 0.00 0.00 0.71 87 1011.4
20260509231731 74 344 0.9 1.7 0.00 0.00 0.71 87 1011.4
20260509231227 74 103 0.0 0.9 0.00 0.00 0.71 87 1011.4
20260509230726 74 8 0.0 0.9 0.00 0.00 0.71 87 1011.4
20260509230226 74 0 0.0 0.0 0.00 0.00 0.71 87 1011.3
20260509225726 74 349 0.0 0.0 0.00 0.00 0.71 87 1011.4
20260509225226 74 0 0.0 0.0 0.00 0.00 0.71 87 1011.4
20260509224726 74 0 0.0 0.0 0.00 0.00 0.71 88 1011.3
20260509224226 74 0 0.0 0.0 0.00 0.00 0.71 88 1011.3
20260509223726 74 0 0.0 0.0 0.00 0.00 0.71 87 1011.2
20260509223227 74 0 0.0 0.0 0.00 0.00 0.71 87 1011.2
20260509222726 74 0 0.0 0.0 0.00 0.00 0.71 88 1011.1
20260509222226 74 141 0.0 0.0 0.00 0.00 0.71 87 1011.0
20260509221726 74 0 0.0 0.0 0.00 0.00 0.71 87 1011.0
20260509221226 74 0 0.0 0.0 0.00 0.00 0.71 85 1011.0
20260509220726 74 322 0.9 0.9 0.00 0.00 0.71 85 1011.1
20260509220226 74 0 0.0 0.0 0.00 0.00 0.71 86 1011.1
20260509215726 74 0 0.0 0.0 0.00 0.00 0.71 85 1011.2
20260509215226 75 80 0.0 0.9 0.00 0.00 0.71 85 1011.2
20260509214726 75 0 0.0 0.0 0.00 0.00 0.71 85 1011.1
20260509214226 75 66 0.9 0.9 0.00 0.00 0.71 85 1011.1
20260509213726 76 0 0.0 0.0 0.00 0.00 0.71 84 1011.0
20260509213226 76 6 0.0 0.0 0.00 0.00 0.71 83 1011.1
20260509212726 76 0 0.0 0.0 0.00 0.00 0.71 84 1011.1
20260509212226 76 326 0.0 0.9 0.00 0.00 0.71 83 1010.9
20260509211727 76 0 0.0 0.0 0.00 0.00 0.71 84 1010.9
20260509211226 77 0 0.0 0.0 0.00 0.00 0.71 84 1011.0
20260509210726 77 0 0.0 0.0 0.00 0.00 0.71 82 1010.9
20260509210226 77 0 0.0 0.0 0.00 0.00 0.71 83 1011.0
20260509205727 77 294 0.0 0.0 0.00 0.00 0.71 82 1010.9
20260509205227 77 0 0.0 0.0 0.00 0.00 0.71 81 1010.9
20260509204726 77 0 0.0 0.0 0.00 0.00 0.71 80 1011.0
20260509204226 77 335 0.0 0.9 0.00 0.00 0.71 81 1011.2
20260509203726 77 84 0.0 0.0 0.00 0.00 0.71 82 1011.3
20260509203226 77 320 0.0 0.0 0.00 0.00 0.71 83 1011.3
20260509202726 76 282 0.9 0.9 0.00 0.00 0.71 81 1011.4
20260509202226 76 0 0.0 0.0 0.00 0.00 0.71 83 1011.4
20260509201726 76 0 0.0 0.0 0.00 0.00 0.71 83 1011.4
20260509201228 76 339 0.9 0.9 0.00 0.00 0.71 82 1011.5
20260509200726 76 328 0.0 0.9 0.00 0.00 0.71 82 1011.5
20260509200227 76 0 0.0 0.0 0.00 0.00 0.71 82 1011.6
20260509195726 76 37 0.0 1.7 0.00 0.00 0.71 83 1011.7
20260509195226 75 294 0.0 0.9 0.00 0.00 0.71 83 1011.8
20260509194726 75 0 0.0 0.0 0.00 0.00 0.71 84 1011.9
20260509194227 75 7 0.0 0.9 0.00 0.00 0.71 84 1011.9
20260509193727 75 0 0.0 0.0 0.00 0.00 0.71 85 1012.0
20260509193226 74 244 0.9 1.7 0.00 0.00 0.71 83 1011.9
20260509192726 74 303 0.0 0.9 0.00 0.00 0.71 85 1011.9
20260509192226 74 260 0.9 0.9 0.00 0.00 0.71 84 1012.0
20260509191726 74 0 0.0 0.0 0.00 0.00 0.71 85 1012.0
20260509191227 74 345 0.0 0.9 0.00 0.00 0.71 85 1011.9
20260509190726 74 0 0.0 0.0 0.00 0.00 0.71 86 1011.8
20260509190226 74 0 0.0 0.0 0.00 0.00 0.71 85 1011.8
20260509185726 74 0 0.0 0.0 0.00 0.00 0.71 85 1011.8
20260509185226 74 50 0.0 0.9 0.00 0.00 0.71 84 1011.9
20260509184727 74 41 0.0 0.9 0.00 0.00 0.71 84 1011.8
20260509184226 74 295 0.9 0.9 0.00 0.00 0.71 85 1011.8
20260509183726 74 342 0.0 0.0 0.00 0.00 0.71 85 1011.7
20260509183229 74 56 0.9 0.9 0.00 0.00 0.71 85 1011.8
20260509182726 74 0 0.0 0.0 0.00 0.00 0.71 88 1011.9
20260509182226 73 312 0.9 0.9 0.00 0.00 0.71 88 1012.1
20260509181726 73 0 0.0 0.0 0.00 0.00 0.71 88 1012.2
20260509181226 73 118 0.0 0.0 0.00 0.00 0.71 89 1012.3
20260509180726 73 0 0.0 0.0 0.00 0.00 0.71 90 1012.2
20260509180227 73 320 0.9 0.9 0.00 0.00 0.71 89 1012.4
20260509175726 73 0 0.0 0.0 0.00 0.00 0.71 91 1012.4
20260509175226 73 308 0.0 0.9 0.00 0.00 0.71 91 1012.5
20260509174726 72 0 0.0 0.0 0.00 0.00 0.71 92 1012.5
20260509174227 72 0 0.0 0.0 0.00 0.00 0.71 91 1012.6
20260509173726 72 0 0.0 0.0 0.00 0.00 0.71 92 1012.5
20260509173226 72 120 0.0 0.0 0.00 0.00 0.71 93 1012.5
20260509172726 71 0 0.0 0.0 0.00 0.00 0.71 93 1012.6
20260509172227 71 268 0.0 0.0 0.00 0.00 0.71 95 1012.6
20260509171726 71 288 0.9 0.9 0.00 0.00 0.71 96 1012.8
20260509171226 70 0 0.0 0.0 0.00 0.00 0.71 96 1012.8
20260509170727 70 0 0.0 0.0 0.00 0.00 0.71 98 1013.0
20260509170226 70 287 0.0 0.9 0.00 0.00 0.71 97 1013.1
20260509165726 70 233 0.0 0.9 0.00 0.00 0.71 98 1013.2
20260509165227 70 0 0.0 0.0 0.00 0.00 0.71 99 1013.2
20260509164726 70 0 0.0 0.0 0.00 0.00 0.71 99 1013.3
20260509164227 69 0 0.0 0.0 0.00 0.00 0.71 99 1013.3
20260509163726 69 0 0.0 0.0 0.00 0.00 0.71 99 1013.4
20260509163226 69 238 0.0 0.0 0.00 0.00 0.71 99 1013.4
20260509162726 69 271 0.9 0.9 0.00 0.00 0.71 99 1013.3
20260509162226 69 0 0.0 0.0 0.00 0.00 0.71 100 1013.3
20260509161726 69 0 0.0 0.0 0.00 0.00 0.71 100 1013.3
20260509161226 69 0 0.0 0.0 0.00 0.00 0.71 99 1013.2
20260509160727 68 186 0.9 0.9 0.00 0.00 0.71 99 1013.0
20260509160226 68 154 0.0 0.0 0.00 0.00 0.71 99 1013.0
20260509155726 68 280 0.0 0.9 0.00 0.00 0.71 99 1013.0
20260509155226 68 99 0.0 0.0 0.00 0.00 0.71 99 1013.0
20260509154733 68 210 0.9 1.7 0.00 0.00 0.71 99 1013.0
20260509154226 67 0 0.0 0.0 0.00 0.00 0.71 99 1013.1
20260509153727 67 278 0.0 0.0 0.00 0.00 0.71 99 1013.2
20260509153226 67 0 0.0 0.0 0.00 0.00 0.71 99 1013.3
20260509152726 67 263 0.0 0.0 0.00 0.00 0.71 99 1013.3
20260509152227 67 271 0.0 0.0 0.00 0.00 0.71 99 1013.3
20260509151726 67 273 0.0 0.9 0.00 0.00 0.71 99 1013.3
20260509151226 67 0 0.0 0.0 0.00 0.00 0.71 99 1013.3
20260509150726 67 305 0.0 0.9 0.00 0.00 0.71 99 1013.1
20260509150226 67 343 0.0 0.9 0.00 0.00 0.71 99 1013.0
20260509145727 67 0 0.0 0.0 0.00 0.00 0.71 99 1013.1
20260509145226 67 259 0.9 1.7 0.00 0.00 0.71 99 1013.0
20260509144726 66 0 0.0 0.0 0.00 0.00 0.71 99 1013.1
20260509144226 66 224 0.9 1.7 0.00 0.00 0.71 99 1013.2
20260509143727 66 262 0.0 0.0 0.00 0.00 0.71 99 1013.1
20260509143226 66 251 0.9 1.7 0.00 0.00 0.71 99 1013.0
20260509142728 66 258 1.7 1.7 0.00 0.00 0.71 99 1012.8
20260509142227 66 269 0.9 1.7 0.00 0.00 0.71 99 1012.7
20260509141726 66 166 0.0 0.0 0.00 0.00 0.71 99 1012.8
20260509141227 66 265 0.9 1.7 0.00 0.00 0.71 99 1012.8
20260509140726 66 233 0.9 1.7 0.00 0.00 0.71 99 1012.6
20260509140226 66 238 0.0 0.9 0.00 0.00 0.71 99 1012.5
20260509135726 66 245 1.7 1.7 0.00 0.00 0.71 99 1012.5
20260509135226 66 111 0.0 0.0 0.00 0.00 0.71 99 1012.3
20260509134726 67 161 0.0 0.0 0.00 0.00 0.71 99 1012.4
20260509134226 67 256 1.7 1.7 0.00 0.00 0.71 99 1012.4
20260509133727 66 255 0.9 1.7 0.00 0.00 0.71 99 1012.2
20260509133226 66 249 0.0 0.0 0.00 0.00 0.71 99 1012.1
20260509132735 66 0 0.0 0.0 0.00 0.00 0.71 99 1011.8
20260509132226 65 111 0.0 0.0 0.00 0.00 0.71 99 1011.9
20260509131726 65 0 0.0 0.0 0.00 0.00 0.71 99 1012.0
20260509131226 65 205 0.9 0.9 0.00 0.00 0.71 99 1012.2
20260509130727 65 165 0.0 0.9 0.00 0.00 0.71 99 1012.1
20260509130227 65 235 0.0 0.9 0.00 0.00 0.71 99 1012.2
20260509125726 65 344 0.0 0.0 0.00 0.00 0.69 99 1012.0
20260509125226 65 244 0.9 0.9 0.00 0.00 0.69 99 1012.0
20260509124728 65 257 1.7 1.7 0.00 0.00 0.69 99 1012.1
20260509124226 64 251 1.7 1.7 0.00 0.00 0.69 99 1011.8
20260509123726 64 0 0.0 0.0 0.00 0.00 0.69 99 1011.5
20260509123227 64 279 0.9 0.9 0.00 0.00 0.69 99 1011.5
20260509122727 64 116 0.0 0.0 0.00 0.00 0.69 99 1011.5
20260509122226 64 144 0.9 1.7 0.00 0.00 0.83 99 1011.4
20260509121726 64 93 0.0 0.0 0.00 0.00 0.81 99 1010.6
20260509121226 64 0 0.0 0.0 0.00 0.00 0.81 99 1009.8
20260509120726 64 298 1.7 1.7 0.00 0.00 0.81 99 1008.9
20260509120226 64 115 0.9 1.7 0.06 0.00 0.76 99 1008.6
20260509115726 64 71 0.9 1.7 0.09 0.00 0.76 99 1008.6
20260509115226 64 11 0.0 0.9 0.26 0.00 0.75 99 1009.9
20260509114726 64 151 0.0 0.9 0.36 0.00 0.73 99 1011.0
20260509114228 64 243 0.0 0.9 0.22 0.00 0.71 99 1011.3
20260509113726 64 172 0.9 1.7 0.21 0.00 0.69 99 1011.4
20260509113227 64 263 0.9 0.9 0.13 0.00 0.67 99 1011.5
20260509112726 64 160 0.9 0.9 0.09 0.00 0.66 99 1011.4
20260509112226 64 173 0.9 0.9 0.15 0.00 0.64 99 1012.0
20260509111726 64 59 0.0 0.0 0.28 0.00 0.66 99 1012.1
20260509111226 64 176 0.0 0.9 0.17 0.00 0.63 99 1012.3
20260509110726 64 132 0.9 0.9 0.12 0.00 0.61 99 1012.4
20260509110226 64 171 0.9 1.7 0.04 0.00 0.61 99 1012.0
20260509105726 64 266 1.7 1.7 0.02 0.00 0.75 99 1011.5
20260509105226 64 150 0.9 0.9 0.02 0.00 0.74 99 1011.2
20260509104726 64 65 0.0 0.9 0.02 0.00 0.74 99 1010.5
20260509104226 64 223 0.9 1.7 0.02 0.00 0.74 99 1009.8